sat.trackr.live / text

‹ back to catalog

UNKNOWN

NORAD 85006

UNKNOWN UNKNOWN UNKNOWN

§ Identity

Operator
Country
Launch date
Launch site
Launch vehicle
Mass (kg)
RCS (m²)

External: N2YO · Heavens-Above

§ Orbital elements

Epoch: 2026-09-19T09:16:24.347424Z

Period
101.54 min
Inclination
98.8393°
Eccentricity
0.0007875
Mean motion
14.18109233 rev/d
Perigee alt
826.1 km
Apogee alt
837.4 km
Semi-major
7,209.9 km
B*
7.5776e-4
RAAN
313.8205°
Arg perigee
68.0335°
Mean anomaly
292.1676°
Rev number
1,642

§ Raw data

UNKNOWN1 85006U          26262.38639291  .00001511  00000+0  75776-3 0  99902 85006  98.8393 313.8205 0007875  68.0335 292.1676 14.18109233 16423

JSON: /api/v1/satellites/85006 · /tle

For live sub-satellite position, see the globe view (requires WebGL).

§ Visibility from observer

Set your observer location to see the next 7 days of passes ≥ 10°. The values pass through the URL so the page stays shareable.

No JS? Fill the form by hand. The geolocation button needs JavaScript.